sat.trackr.live / text

‹ back to catalog

EOS-4

NORAD 51656 · 2022-013A

PAYLOAD ACTIVE UNKNOWN

§ Identity

Operator
Country
IND
Launch date
2022-02-14
Launch site
SRILR
Launch vehicle
Mass (kg)
RCS (m²)

External: N2YO · Heavens-Above · Gunter

§ Orbital elements

Epoch: 2026-09-20T22:43:51.282912Z

Period
95.19 min
Inclination
97.5161°
Eccentricity
0.0001862
Mean motion
15.12723113 rev/d
Perigee alt
526.6 km
Apogee alt
529.2 km
Semi-major
6,906.0 km
B*
8.6340e-5
RAAN
269.1510°
Arg perigee
86.6356°
Mean anomaly
273.5088°
Rev number
25,396

§ Raw data

EOS-41 51656U 22013A   26263.94712133  .00001448  00000+0  86340-4 0  99912 51656  97.5161 269.1510 0001862  86.6356 273.5088 15.12723113253963

JSON: /api/v1/satellites/51656 · /tle

For live sub-satellite position, see the globe view (requires WebGL).

§ Visibility from observer

Set your observer location to see the next 7 days of passes ≥ 10°. The values pass through the URL so the page stays shareable.

No JS? Fill the form by hand. The geolocation button needs JavaScript.